Regional Weather Roundup
Issued by NWS

Home | Current Version | Previous Version | Graphics & Text | Print | Product List | Glossary On
Versions: 1 2 3 4 5 6 7 8 9 10 11 12 13 14 15 16 17 18 19 20 21 22 23 24 25 26 27 28 29 30 31 32 33 34 35 36 37 38 39 40 41 42 43 44 45 46 47 48 49 50
000
ASUS45 KCYS 282210
RWRWY

WYOMING REGIONAL WEATHER ROUNDUP
NATIONAL WEATHER SERVICE CHEYENNE WY
400 PM MDT THU AUG 28 2014

NOTE:  "FAIR" INDICATES FEW OR NO CLOUDS BELOW 12,000 FEET
WITH NO SIGNIFICANT WEATHER AND/OR OBSTRUCTIONS TO VISIBILITY.

WYZ001-282300-
YELLOWSTONE NATIONAL PARK

CITY           SKY/WX    TMP DP  RH WIND       PRES   REMARKS
LK YELLOWSTONE   N/A     68  37  32 CALM      30.30F
W YELLOWSTONE  NOT AVBL

$$
WYZ002>013-054>058-071-098>099-282300-
NORTHERN WYOMING

CITY           SKY/WX    TMP DP  RH WIND       PRES   REMARKS
JACKSON        NOT AVBL
CODY           PTSUNNY   81  43  26 E6        30.05F
GREYBULL       SUNNY     85  40  20 SW5       29.98F
WORLAND        SUNNY     84  41  21 N7        30.01F
SHERIDAN       SUNNY     87  44  22 NW15      29.98F
BUFFALO        SUNNY     81  41  24 N14G23    30.06S
GILLETTE       MOSUNNY   81  44  27 N15       30.00F
HULETT         FAIR      81  41  24 MISG      30.01
NEWCASTLE      FAIR      79  41  25 MISG      30.00

$$
WYZ014>020-022>026-101>103-282300-
CENTRAL WYOMING

CITY           SKY/WX    TMP DP  RH WIND       PRES   REMARKS
BIG PINEY      MOSUNNY   74  35  24 NW8       30.25F
PINEDALE       CLEAR     72  36  26 W10G23    30.25F
DUBOIS         FAIR      73  32  21 NW12G23   30.23S
LANDER         SUNNY     80  40  23 S10       30.11F
RIVERTON       SUNNY     79  37  22 S10       30.12F
CASPER         MOSUNNY   82  39  21 NW9       30.08F
DOUGLAS        MOSUNNY   74  50  42 E13       30.07S

$$
WYZ021-027>030-104>119-282300-
SOUTHERN WYOMING

CITY           SKY/WX    TMP DP  RH WIND       PRES   REMARKS
EVANSTON       PTSUNNY   72  44  36 SW7       30.31F
KEMMERER       PTCLDY    70  39  32 NW12      30.30F
FORT BRIDGER   FAIR      72  40  31 NW10G18   30.32F
ROCK SPRINGS   MOSUNNY   73  36  25 NW14G23   30.24F
DIXON          FAIR      71  51  49 W9        30.26F
RAWLINS        MOSUNNY   73  36  25 NW14G21   30.21F
SARATOGA       FAIR      66  46  48 CALM      30.24F
LARAMIE        PTSUNNY   62  48  60 E3        30.22F
CHEYENNE       CLOUDY    63  49  60 NW9       30.17F
TORRINGTON     CLOUDY    65  60  84 N5        30.07S
PINE BLUFFS    MOCLDY    63  54  72 NW9       30.12F

$$


USA.gov is the U.S. government's official web portal to all federal, state and local government web resources and services.